Tracking 35035 objects as of 16-Aug-2026
HD Live streaming from Space Station
objects crossing your sky now

STARLINK-32671

Track STARLINK-32671 now!
10-day predictions
STARLINK-32671 is classified as:


NORAD ID: 62209
Int'l Code: 2024-229T
Launch date: December 4, 2024
Source: United States (US)
Launch site: AIR FORCE EASTERN TEST RANGE (AFETR)
Your satellite tracking list
Your tracking list is empty




NASA's NSSDC Master Catalog

Two Line Element Set (TLE):
1 62209U 24229T   26228.01884268  .00019163  00000-0  70329-3 0  9999
2 62209  43.0030  91.3382 0001541 266.5460  93.5215 15.27617479 94925
Source of the keplerian elements: AFSPC